Location: Newark
(5.8900°S, 42.6378°W)
Time: 23:35:36
(UTC+00:00)

Tiros 1 - All Passes

Search period start: 17 September 2019 00:00
Search period end: 27 September 2019 00:00
Orbit: 631 x 664 km, 48.4° (Epoch: 17 September)

Date Brightness Start Highest point End Pass type
(mag) Time Alt. Az. Time Alt. Az. Time Alt. Az.
17 Sep - 02:06:20 10° NNW 02:10:54 68° NE 02:15:33 10° SE night (unlit)
17 Sep - 12:35:20 10° S 12:39:24 27° SE 12:43:26 10° ENE daylight
17 Sep - 14:17:31 10° WSW 14:21:26 25° NW 14:25:20 10° N daylight
18 Sep - 00:51:51 10° N 00:54:57 18° NE 00:58:05 10° E night (unlit)
18 Sep - 02:32:43 10° WNW 02:36:56 34° SW 02:41:12 10° SSE night (unlit)
18 Sep - 13:00:38 10° SW 13:05:28 87° SE 13:10:15 10° NE daylight
19 Sep - 01:16:23 10° NNW 01:20:55 59° NE 01:25:30 10° SE night (unlit)
19 Sep - 03:01:42 10° WSW 03:03:08 11° SW 03:04:34 10° SSW night (unlit)
19 Sep - 11:45:30 10° S 11:49:23 24° SE 11:53:14 10° ENE daylight
19 Sep - 13:27:20 10° WSW 13:31:26 28° NW 13:35:30 10° N daylight
20 Sep - 00:02:12 10° NNE 00:04:57 16° NE 00:07:44 10° E night (unlit)
20 Sep - 01:42:37 10° WNW 01:46:56 39° SW 01:51:18 10° SSE night (unlit)
20 Sep - 12:10:38 10° SW 12:15:27 77° SE 12:20:14 10° NE daylight
21 Sep - 00:26:28 10° NNW 00:30:56 52° NE 00:35:27 10° SE night (unlit)
21 Sep - 02:11:03 10° WSW 02:13:06 13° SW 02:15:09 10° SSW night (unlit)
21 Sep - 10:55:40 10° S 10:59:21 21° SE 11:03:00 10° E daylight
21 Sep - 12:37:09 10° WSW 12:41:25 32° NW 12:45:39 10° N daylight
21 Sep - 23:12:38 10° NNE 23:14:58 14° NE 23:17:18 10° E night (unlit)
22 Sep - 00:52:32 10° WNW 00:56:55 44° SW 01:01:22 10° SSE night (unlit)
22 Sep - 11:20:38 10° SSW 11:25:26 68° SE 11:30:12 10° NE daylight
22 Sep - 23:36:33 10° NNW 23:40:56 45° NE 23:45:22 10° SE night (unlit)
23 Sep - 01:20:35 10° W 01:23:04 14° SW 01:25:34 10° SSW night (unlit)
23 Sep - 10:05:53 10° S 10:09:18 19° SE 10:12:43 10° E daylight
23 Sep - 11:47:00 10° WSW 11:51:25 36° NW 11:55:47 10° NNE daylight
23 Sep - 22:23:12 10° NNE 22:24:58 12° NE 22:26:44 10° ENE visible
24 Sep - 00:02:28 10° NW 00:06:55 50° SW 00:11:26 10° SSE night (unlit)
24 Sep - 10:30:39 10° SSW 10:35:25 59° SE 10:40:08 10° NE daylight
24 Sep - 12:16:01 10° WNW 12:17:24 11° NW 12:18:48 10° NW daylight
24 Sep - 22:46:39 10° NNW 22:50:57 40° NE 22:55:17 10° ESE visible
25 Sep - 00:30:12 10° W 00:33:03 16° SW 00:35:54 10° S night (unlit)
25 Sep - 09:16:08 10° S 09:19:16 17° SE 09:22:24 10° E daylight
25 Sep - 10:56:53 10° WSW 11:01:24 40° NW 11:05:53 10° NNE daylight
25 Sep - 21:34:06 10° NE 21:34:58 10° NE 21:35:48 10° ENE visible
25 Sep - 23:12:24 10° NW 23:16:56 57° SW 23:21:29 10° SSE visible
26 Sep - 09:40:42 10° SSW 09:45:23 52° SE 09:50:04 10° NE daylight
26 Sep - 11:25:17 10° WNW 11:27:23 13° NW 11:29:30 10° NNW daylight
26 Sep - 21:56:46 10° NNW 22:00:57 35° NE 22:05:10 10° ESE visible
26 Sep - 23:39:53 10° W 23:43:02 18° SW 23:46:11 10° S visible
